This demonstration page uses our WeatherBlox Daily Observations layout. Learn more.

Left ArrowRight Arrow

Hourly Observations for October 14, 2022

Temp ( °F °C ) Dew Point ( °F °C ) Humidity (%) Winds ( mph kmh ) Pressure ( in mb ) Visibility ( mi km ) Precip ( " mm )
12:53 am 00:53 Clear 43 6.1 30 -1.1 60 60 W 8 13 29.93 1014 10 16 0.00 0.00
1:53 am 01:53 Clear 44 6.7 31 -0.6 60 60 SW 10 17 29.91 1013 10 16 0.00 0.00
2:53 am 02:53 Clear 46 7.8 32 0 58 58 WSW 12 19 29.88 1012 10 16 0.00 0.00
3:53 am 03:53 Clear 45 7.2 32 0 60 60 WSW 10 17 29.88 1012 10 16 0.00 0.00
4:53 am 04:53 Clear 45 7.2 33 0.6 63 63 SW 12 19 29.88 1012 10 16 0.00 0.00
5:53 am 05:53 Clear 45 7.2 33 0.6 63 63 SW 13 20 29.90 1013 10 16 0.00 0.00
6:53 am 06:53 Clear 42 5.6 32 0 67 67 SW 9 15 29.92 1013 10 16 0.00 0.00
7:53 am 07:53 Sunny 42 5.6 32 0 67 67 SW 10 17 29.93 1013 10 16 0.00 0.00
8:53 am 08:53 Sunny 46 7.8 33 0.6 60 60 SW 14 22 29.93 1014 10 16 0.00 0.00
9:53 am 09:53 Sunny 56 13.3 34 1.1 43 43 WSW 10 17 29.92 1013 10 16 0.00 0.00
10:53 am 10:53 Sunny 59 15 34 1.1 39 39 WSW 10 17 29.91 1013 10 16 0.00 0.00
11:53 am 11:53 Partly Cloudy 63 17.2 34 1.1 34 34 WNW 13 20 29.90 1013 10 16 0.00 0.00
12:53 pm 12:53 Mostly Sunny 64 17.8 33 0.6 31 31 W 12 19 29.91 1013 10 16 0.00 0.00
1:53 pm 13:53 Sunny 68 20 35 1.7 30 30 W 15 24 29.89 1012 10 16 0.00 0.00
2:53 pm 14:53 Partly Cloudy 69 20.6 36 2.2 30 30 WNW 15 24 29.88 1012 10 16 0.00 0.00
3:53 pm 15:53 Sunny 69 20.6 36 2.2 30 30 NW 15 24 29.88 1012 10 16 0.00 0.00
4:53 pm 16:53 Cloudy 68 20 36 2.2 31 31 NW 14 22 29.88 1012 10 16 0.00 0.00
5:53 pm 17:53 Partly Cloudy 66 18.9 36 2.2 33 33 WNW 8 13 29.90 1012 10 16 0.00 0.00
6:53 pm 18:53 Partly Cloudy 63 17.2 36 2.2 36 36 WNW 10 17 29.91 1013 10 16 0.00 0.00
7:53 pm 19:53 Cloudy 63 17.2 36 2.2 36 36 N 9 15 29.93 1013 10 16 0.00 0.00
8:53 pm 20:53 Cloudy 60 15.6 36 2.2 40 40 WNW 9 15 29.95 1014 10 16 0.00 0.00
9:53 pm 21:53 Mostly Cloudy 61 16.1 38 3.3 42 42 NNW 14 22 29.94 1014 10 16 0.00 0.00
10:53 pm 22:53 Cloudy 60 15.6 37 2.8 42 42 NW 16 26 29.95 1014 10 16 0.00 0.00
11:53 pm 23:53 Mostly Clear 59 15 39 3.9 47 47 WNW 14 22 29.96 1015 10 16 0.00 0.00

Powered by AerisWeather